Palm Springs, CA

11:40 PM PST on January 21, 2018 (GMT -0800)
Palm Springs International

Weather History for KPSP - April, 2013

Change the Weather History Date:

Sunday, April 21, 2013

  Actual Average Record
Temperature  
Mean Temperature 79 °F 72 °F  
Max Temperature 94 °F 86 °F 107 °F (1958)
Min Temperature 64 °F 58 °F 37 °F (1962)
Degree Days  
Heating Degree Days 0 0  
Month to date heating degree days 0 17  
Since 1 July heating degree days 760 868  
Cooling Degree Days 14 7  
Month to date cooling degree days 163 121  
Year to date cooling degree days 395 241  
Growing Degree Days 32 (Base 50)    
Moisture  
Dew Point 31 °F    
Average Humidity 19    
Maximum Humidity 28    
Minimum Humidity 9    
Precipitation  
Precipitation 0.00 in 0.00 in 0.15 in (1983)
Month to date precipitation 0.00 0.08  
Year to date precipitation 0.97 2.72  
Since 1 July precipitation 2.19  
Snow  
Snow 0.00 in - - ()
Month to date snowfall 0.0  
Year to date snowfall 0.0  
Snow Depth 0.00 in    
Sea Level Pressure  
Sea Level Pressure 29.88 in    
Wind  
Wind Speed 7 mph (NE)    
Max Wind Speed 13 mph    
Max Gust Speed 20 mph    
Visibility 10 miles    
Events      
T = Trace of Precipitation, MM = Missing Value Source: NWS Daily Summary

Daily Weather History Graph

Daily Weather History Graph

Search for Another Location

Airport or City:

Trip Planner

Search our weather history database for the weather conditions in past years. The results will help you decide how hot, cold, wet, or windy it might be!

Date:

Astronomy

Apr. 21, 2013 Rise Set
Actual Time 6:07 AM PDT 7:22 PM PDT
Civil Twilight 5:41 AM PDT 7:48 PM PDT
Nautical Twilight 5:10 AM PDT 8:19 PM PDT
Astronomical Twilight 4:38 AM PDT 8:51 PM PDT
Moon 3:22 PM PDT (4/21) 3:20 AM PDT (4/21)
Length of Visible Light 14h 06m
Length of Day
13h 14m
Waxing Gibbous, 81% of the Moon is Illuminated
Apr 21
Waxing Gibbous
Apr 25
Full
May 2
Last Quarter
May 9
New
May 17
First Quarter

Hourly Weather History & Observations

Time (PDT) Temp. Dew Point Humidity Pressure Visibility Wind Dir Wind Speed Gust Speed Precip Events Conditions
12:53 AM 77.0 °F 32.0 °F 19% 29.90 in 10.0 mi NNW 6.9 mph - N/A   Clear
1:53 AM 73.0 °F 35.1 °F 25% 29.90 in 10.0 mi North 8.1 mph - N/A   Clear
2:53 AM 71.1 °F 35.1 °F 27% 29.89 in 10.0 mi NNW 6.9 mph - N/A   Clear
3:53 AM 70.0 °F 34.0 °F 27% 29.89 in 10.0 mi NNW 6.9 mph - N/A   Clear
4:53 AM 70.0 °F 35.1 °F 28% 29.89 in 10.0 mi NW 6.9 mph - N/A   Clear
5:53 AM 70.0 °F 34.0 °F 27% 29.90 in 10.0 mi NW 6.9 mph - N/A   Clear
6:53 AM 70.0 °F 33.1 °F 26% 29.92 in 10.0 mi NNW 8.1 mph - N/A   Clear
7:53 AM 73.9 °F 34.0 °F 23% 29.93 in 10.0 mi NNW 5.8 mph - N/A   Clear
8:53 AM 80.1 °F 32.0 °F 17% 29.93 in 10.0 mi NNW 3.5 mph - N/A   Clear
9:53 AM 84.0 °F 34.0 °F 17% 29.93 in 10.0 mi Calm Calm - N/A   Clear
10:53 AM 89.1 °F 28.0 °F 11% 29.93 in 10.0 mi East 6.9 mph - N/A   Clear
11:53 AM 91.0 °F 28.0 °F 10% 29.91 in 10.0 mi East 6.9 mph - N/A   Clear
12:53 PM 91.9 °F 25.0 °F 9% 29.89 in 10.0 mi East 11.5 mph 19.6 mph N/A   Clear
1:53 PM 93.0 °F 28.0 °F 10% 29.87 in 10.0 mi SE 10.4 mph - N/A   Clear
2:53 PM 93.0 °F 28.0 °F 10% 29.86 in 10.0 mi ESE 9.2 mph - N/A   Clear
3:53 PM 93.9 °F 28.9 °F 10% 29.83 in 10.0 mi East 11.5 mph - N/A   Clear
4:53 PM 93.0 °F 27.0 °F 9% 29.82 in 10.0 mi East 9.2 mph - N/A   Clear
5:53 PM 93.0 °F 27.0 °F 9% 29.81 in 10.0 mi ESE 8.1 mph - N/A   Clear
6:53 PM 90.0 °F 30.9 °F 12% 29.81 in 10.0 mi ESE 8.1 mph - N/A   Clear
7:53 PM 86.0 °F 30.9 °F 14% 29.83 in 10.0 mi SE 4.6 mph - N/A   Clear
8:53 PM 86.0 °F 30.0 °F 13% 29.85 in 10.0 mi NNE 3.5 mph - N/A   Clear
9:53 PM 82.0 °F 33.1 °F 17% 29.87 in 10.0 mi Calm Calm - N/A   Clear
11:53 PM 79.0 °F 32.0 °F 18% 29.87 in 10.0 mi Calm Calm - N/A   Clear